[Date Prev][Date Next][Thread Prev][Thread Next] - [Date Index][Thread Index][Author Index]
2 Line ISS Keps 3-18
- Subject: [sarex] 2 Line ISS Keps 3-18
- From: "Dave Larsen PhD" <doc@xxxxxxxxxxx>
- Date: Thu, 18 Mar 2004 02:11:02 -0800
ISS
1 25544U 98067A 04078.30444630 .00018037 00000-0 17114-3 0 3937
2 25544 51.6287 68.6960 0010643 291.0082 203.6377 15.66919782304056
----
Via the sarex mailing list at AMSAT.ORG courtesy of AMSAT-NA.
To unsubscribe, send "unsubscribe sarex" to Majordomo@amsat.org
AMSAT Home